Dewpoint
12 13 13 11 9 9 5 2 1 1 0 1 2 2 3 2 3 4 5 5 6 9 9 10 10 10 9 9 9 9 11 10
11 12 13 13 13 13 11 9 5 3 3 1 4 9 9 8 7 7 3 3 4 5 6 8 10 9 9 9 9 10 10 10
9 9 11 12 12 13 13 13 11 10 7 5 12 11 10 11 12 8 6 4 1 0 2 3 6 8 7 8 8 12 11 10
6 6 6 9 9 10 10 12 12 13 12 10 8 10 11 10 11 12 11 9 4 6 3 -2 0 5 8 8 7 12 9 9
2 4 -5 4 6 6 6 7 8 9 11 12 12 12 11 11 10 11 13 13 12 11 10 10 9 9 7 7 10 10 9 9
1 3 3 -1 3 3 3 4 4 5 3 -0 7 10 11 12 11 10 9 11 11 11 10 10 10 10 9 8 11 11 9 11
1 2 3 3 2 2 2 2 3 3 1 -9 -8 5 4 8 9 11 11 11 11 9 10 11 11 10 9 10 10 10 10 10
-1 0 1 2 2 2 1 1 1 1 1 -13 -13 -6 -8 4 6 8 8 9 11 11 11 10 10 11 10 10 10 10 11 11
-3 -3 -0 -0 0 0 0 1 0 0 1 -7 -14 -13 -2 3 4 4 -6 6 8 8 9 10 11 10 11 11 11 12 9 11
-2 -2 -1 -2 -1 -0 -1 -1 -0 0 0 0 -12 -14 -9 2 1 -3 2 4 4 4 6 7 9 10 11 10 10 10 9 5
-2 -1 -1 -0 -0 -1 -1 -1 -1 -1 -0 -5 -12 -12 -14 1 1 -2 0 1 2 1 3 5 6 7 7 8 10 8 6 6
-2 -2 -2 -3 -3 -3 -3 -3 -2 -2 -1 -17 -19 -19 -17 -10 1 0 -1 -0 -0 -12 -5 2 3 3 2 4 7 10 9 9
-3 -3 -3 -4 -5 -6 -6 -6 -4 -4 -3 -7 -23 -25 -27 -15 -15 -1 -3 -1 -1 -5 -7 -1 0 2 3 2 3 5 9 11
-3 -3 -3 -3 -5 -5 -4 -4 -5 -5 -4 -3 -6 -7 -16 -2 -10 -2 -14 -2 -1 -9 -15 -2 -1 -0 3 2 2 4 9 9
-2 -2 -2 -2 -2 -4 -4 -6 -6 -5 -5 -4 -3 -4 -5 -16 -6 -8 -5 -1 -2 -6 -12 -3 -1 -2 1 3 2 3 -3 6
-2 -2 -2 -3 -1 -2 -2 -3 -4 -3 -3 -2 -2 -2 -3 -3 -5 -3 -4 -0 -7 -2 -6 -11 -2 -2 -2 -1 3 4 5 2
-2 -2 -2 -2 -1 -1 -1 -1 -2 -3 -2 -1 -2 -2 -2 -2 -5 -3 -3 -1 -0 -3 -16 -8 -4 -2 -3 -2 -0 -0 4 1
-1 -1 -2 -2 -1 -1 -0 -0 -1 -1 -1 -2 -2 -2 -2 -2 -5 -6 -3 -5 -4 -1 -1 -1 -3 -7 -3 -3 -3 -2 -2 -1
-2 -2 -3 -2 -1 -0 -0 0 0 -0 -2 -2 -2 -2 -2 -2 -1 -2 -3 -4 -5 -5 -4 -0 -1 -1 -2 -2 -3 -3 -2 -2
-3 -3 -3 -3 -3 -2 -1 -1 -1 -1 -2 -1 -1 -1 -1 -1 0 0 -0 -3 -4 -5 -3 -1 -1 -3 -5 -1 -2 -3 -4 -3
Wind_Speed
9 8 8 7 7 8 8 8 7 7 7 6 6 7 7 6 5 4 5 5 5 4 3 2 3 4 4 4 5 8 10 5
9 7 7 7 8 8 7 7 6 6 5 4 8 11 14 14 9 9 7 7 7 7 6 6 5 4 4 3 3 8 9 3
11 10 9 10 9 7 7 5 4 3 2 3 8 6 6 8 14 11 10 9 9 9 9 9 8 7 7 5 3 7 5 4
12 11 9 12 9 12 13 9 8 8 6 5 2 3 3 3 6 8 11 14 12 11 13 11 10 6 12 11 4 6 3 5
13 13 10 11 11 10 10 9 12 12 9 7 7 8 6 6 7 5 5 10 11 10 15 11 6 8 7 9 8 7 5 6
13 13 12 12 10 10 10 11 11 12 12 9 10 11 10 11 11 11 9 6 8 8 8 10 13 11 10 9 8 7 7 11
13 13 13 13 13 12 12 12 12 13 13 12 10 11 10 13 14 14 13 14 14 13 12 9 10 12 12 10 10 10 10 9
12 13 13 13 13 14 14 13 13 13 15 17 15 13 12 12 11 10 13 11 13 16 16 14 12 10 12 13 14 14 12 13
12 12 13 13 13 13 13 13 13 14 14 17 17 17 16 14 12 12 13 13 12 11 16 16 19 17 17 18 17 15 14 15
13 12 11 12 12 12 12 12 12 13 14 15 17 17 16 15 14 16 15 13 12 12 12 12 14 16 20 22 21 21 22 22
12 12 11 10 12 11 11 12 12 12 13 15 17 17 18 15 15 16 15 14 14 14 13 12 15 13 15 16 23 32 31 30
11 11 12 12 11 10 10 11 10 10 11 16 17 18 17 17 15 17 15 15 15 16 15 14 13 15 18 15 16 19 27 32
9 10 11 10 10 10 10 10 10 10 11 14 17 18 19 18 17 16 17 15 17 18 17 15 13 18 14 16 14 12 15 20
7 8 10 10 11 11 10 10 11 11 12 13 16 15 17 15 17 16 18 15 17 19 20 18 13 17 18 15 11 6 3 4
4 6 8 10 10 10 9 10 9 11 12 13 13 15 15 17 16 16 16 15 16 18 19 17 16 14 14 14 10 9 19 4
3 4 6 8 10 9 11 10 11 13 13 14 14 15 15 15 16 16 16 14 17 16 16 17 14 14 13 11 10 10 8 13
0 2 4 5 7 8 9 10 10 10 12 13 13 14 14 14 18 17 16 14 15 17 19 17 14 12 13 13 12 9 9 14
2 1 2 4 6 7 8 10 11 12 13 13 14 13 13 15 20 18 17 18 17 16 16 14 16 15 13 12 11 12 12 14
3 3 4 6 7 9 11 12 13 14 15 15 16 16 16 15 17 18 18 19 20 21 20 17 15 16 15 14 13 13 13 14
4 5 6 8 10 12 13 15 16 17 17 18 19 19 18 19 19 18 18 19 20 21 20 18 17 19 20 16 16 15 15 15
Wind_Direction
37 35 30 33 45 45 44 44 37 31 25 21 21 24 20 11 351 332 313 306 305 302 315 354 20 32 32 33 48 74 81 1
33 43 21 17 16 14 27 36 39 29 25 42 37 21 9 3 348 340 323 312 306 302 296 293 298 319 346 354 31 64 46 320
39 31 41 22 18 11 12 1 348 1 20 101 62 9 341 325 328 315 326 324 318 313 306 297 289 287 313 318 28 34 331 307
29 30 44 28 32 13 8 5 358 352 347 326 260 179 224 271 279 324 336 328 329 332 325 317 317 315 299 305 337 313 284 301
35 28 31 48 25 36 26 23 13 4 346 333 319 302 297 293 264 287 331 304 314 333 320 337 284 276 262 267 266 291 288 281
31 29 33 34 42 28 30 19 25 18 11 2 1 342 322 321 309 282 259 272 255 245 287 286 293 287 278 258 260 266 277 295
33 29 33 38 35 36 32 36 27 24 12 3 5 11 9 4 351 329 288 281 282 269 243 254 285 280 275 263 259 266 277 261
34 35 35 35 38 36 38 34 30 31 22 23 19 14 8 10 1 1 339 331 320 300 286 265 244 258 268 263 256 261 265 257
43 35 36 41 37 41 35 34 32 31 29 24 29 28 28 22 7 355 352 354 353 341 332 313 280 254 239 236 241 234 241 252
42 41 37 32 40 39 37 35 31 29 27 22 27 29 35 18 17 11 14 3 352 347 337 325 311 294 266 257 246 247 247 257
46 39 33 33 23 32 29 31 32 28 26 23 25 24 26 29 11 10 19 11 5 4 354 338 328 325 309 293 280 260 260 255
39 36 32 25 29 23 23 22 25 25 20 21 19 18 19 27 13 8 17 6 7 9 9 356 350 328 319 309 291 274 268 261
42 32 32 31 27 24 20 15 15 11 14 15 18 17 19 14 16 8 11 5 4 6 9 1 358 348 345 332 313 280 267 258
34 33 28 33 25 18 18 17 12 11 9 11 9 16 16 16 15 10 8 6 1 5 7 3 1 357 355 342 342 316 1 284
28 26 28 27 40 22 30 15 2 7 8 4 1 8 8 11 11 8 8 6 2 4 2 7 360 359 7 8 349 341 344 22
45 27 28 15 27 27 26 23 15 10 8 7 7 4 7 6 5 2 1 2 357 359 356 5 0 356 357 3 349 326 333 327
109 28 14 7 10 14 18 7 2 356 354 358 359 358 358 359 4 0 356 354 348 351 351 353 356 352 349 343 340 336 308 317
223 297 323 330 339 341 341 338 337 334 337 343 341 344 345 343 351 354 354 349 347 343 340 336 337 343 335 335 329 322 316 312
232 273 296 308 313 318 317 316 317 321 320 323 324 327 326 326 329 334 336 335 337 338 334 329 324 319 322 319 315 310 309 307
245 274 295 303 307 308 308 308 308 306 307 305 305 306 308 306 309 308 311 312 314 318 319 316 312 311 312 306 304 303 298 298
Height
1608 1605 1603 1601 1600 1599 1598 1597 1596 1595 1595 1594 1593 1593 1592 1591 1591 1590 1589 1589 1588 1588 1587 1586 1585 1584 1583 1583 1582 1582 1581 1584
1608 1606 1605 1603 1602 1601 1600 1598 1597 1596 1596 1595 1595 1595 1594 1594 1592 1591 1590 1589 1588 1588 1587 1587 1586 1586 1585 1584 1583 1583 1583 1585
1609 1607 1606 1605 1603 1602 1600 1599 1597 1596 1595 1596 1595 1598 1598 1597 1594 1593 1591 1590 1589 1588 1587 1586 1586 1585 1585 1584 1584 1583 1584 1585
1611 1608 1605 1607 1606 1604 1601 1599 1598 1597 1596 1594 1594 1593 1593 1593 1594 1592 1591 1590 1589 1588 1587 1586 1585 1585 1586 1585 1584 1584 1585 1585
1612 1609 1607 1606 1606 1605 1603 1602 1600 1597 1596 1595 1594 1593 1592 1591 1591 1590 1590 1589 1590 1587 1587 1586 1588 1586 1587 1586 1586 1585 1584 1584
1614 1611 1608 1606 1607 1605 1604 1602 1601 1599 1596 1594 1593 1592 1591 1590 1590 1589 1588 1586 1586 1586 1588 1587 1586 1585 1584 1583 1584 1584 1583 1580
1614 1612 1610 1608 1606 1606 1604 1604 1600 1600 1597 1594 1593 1593 1591 1591 1589 1587 1586 1586 1585 1584 1582 1582 1584 1584 1583 1582 1582 1582 1582 1580
1617 1614 1612 1611 1609 1607 1605 1604 1604 1601 1599 1596 1594 1592 1591 1592 1592 1590 1586 1584 1583 1582 1581 1581 1579 1578 1580 1580 1579 1579 1578 1576
1618 1617 1614 1612 1611 1609 1608 1606 1606 1604 1601 1598 1596 1594 1592 1592 1592 1588 1584 1586 1584 1583 1581 1578 1577 1575 1574 1573 1574 1573 1573 1574
1618 1618 1615 1615 1613 1610 1610 1608 1607 1605 1604 1600 1597 1595 1593 1595 1591 1588 1586 1586 1584 1581 1580 1579 1576 1572 1570 1569 1569 1568 1568 1567
1621 1619 1618 1617 1615 1614 1612 1610 1609 1607 1605 1601 1599 1597 1595 1595 1593 1590 1588 1586 1583 1579 1577 1578 1574 1572 1569 1567 1564 1563 1563 1563
1623 1621 1620 1619 1618 1617 1616 1613 1612 1610 1606 1602 1600 1599 1597 1594 1595 1592 1590 1587 1583 1580 1576 1576 1574 1571 1566 1563 1561 1559 1557 1558
1625 1624 1622 1622 1620 1618 1617 1617 1615 1613 1609 1604 1602 1600 1598 1596 1594 1593 1590 1589 1585 1581 1577 1575 1574 1569 1565 1559 1557 1553 1554 1555
1627 1625 1623 1621 1621 1619 1618 1617 1617 1615 1612 1608 1603 1600 1598 1598 1595 1594 1591 1589 1585 1582 1579 1576 1575 1571 1567 1561 1557 1554 1552 1552
1627 1626 1625 1622 1621 1621 1620 1619 1618 1616 1614 1610 1607 1603 1600 1597 1596 1594 1591 1590 1587 1583 1580 1578 1575 1574 1571 1567 1562 1559 1554 1552
1626 1625 1625 1624 1622 1622 1621 1620 1618 1617 1614 1612 1610 1605 1602 1599 1596 1594 1592 1590 1587 1585 1582 1579 1577 1575 1573 1571 1569 1566 1562 1555
1625 1625 1625 1625 1624 1622 1621 1620 1619 1617 1615 1613 1610 1608 1604 1601 1597 1595 1593 1591 1588 1585 1582 1580 1578 1576 1574 1572 1570 1567 1564 1562
1624 1624 1624 1624 1623 1622 1621 1619 1618 1616 1614 1613 1610 1608 1605 1603 1599 1596 1593 1591 1588 1585 1582 1580 1577 1574 1573 1571 1569 1567 1565 1562
1624 1624 1624 1623 1622 1621 1620 1618 1617 1615 1613 1611 1609 1607 1604 1602 1598 1595 1593 1590 1587 1585 1582 1579 1577 1574 1571 1569 1568 1565 1563 1560
1623 1623 1623 1622 1621 1619 1618 1617 1615 1613 1611 1609 1606 1604 1602 1599 1596 1593 1591 1588 1586 1583 1580 1578 1575 1572 1568 1566 1564 1562 1560 1558